Showing default

COSMOS 2534 (GLONASS), 44299

Orbit data source: Space-Track

COSMOS 2534 (GLONASS), 44299 is a Commonwealth of Independent States-origin payload satellite in MEO that was launched on Mon, 27 May 2019 UTC via a SOYUZ-2-1B launch vehicle from the Plesetsk Missile And Space Complex (PKMTR). Payload-class satellites include a variety of spacecraft equipped with specific instruments for various scientific and technological missions. These include communications satellites like Starlink; space stations such as the ISS; scientific satellites like the Hubble; Earth observation satellites from companies like Planet Labs, Umbra, and HawkEye 360; GPS; miniature CubeSats for education and research; and military/defense satellites.

Loading next visibility...
Identifier
44299, 2019-030A
Orbit
MEO
Country
Flag of CISCIS
Related business
Manufacturer
Resehetnev ISS
Mission
Operational Defense Navigation
Bus & Motor
URAGAN, Unknown motor
Mass
1,450 kg wet, ~1,200 kg dry
Launch date (UTC)
2019-05-27 (6 years ago)
Launch vehicle
SOYUZ-2-1B
Launch site
Plesetsk Missile And Space Complex (PKMTR)
Object type
Payload
Rocket body
Debris
Shape & HBR
Cyl + 1 Ant + 2 Pan, 3.9 m
Radar Cross Section
8.467 m², Large (>1 m²)

Expand to show TLE details & history
Last TLE update: 1 week ago

TLE from 1 week ago
0 COSMOS 2534 (GLONASS)
1 44299U 19030A   25280.20502529  .00000026  00000-0  00000-0 0  9991
2 44299  64.3664 201.1333 0011283 279.9657 179.4735  2.13101899 49533
Epoch: 2025-10-07T04:55Z
TLE epoch observation values (Epoch: 2025-10-07T04:55:14.185Z)
Latitude
62.85664°
Longitude
-137.70858°
Altitude
19,168.813 km
Speed
3.949 km/s
True Right ascension
20h 48m 47s
True Declination
62° 49' 03"
Sunlit
Object was in daylight at epoch
Visualization orbit readout
Latitude
Unknown
Longitude
Unknown
Altitude
Unknown
Speed
Unknown
Apparent Right ascension
Unknown
Apparent Declination
Unknown
Sunlit
N/A
Visualization observer readout
Local Sidereal Time
17:42:34
Azimuth
Unknown
Elevation
Unknown
Doppler factor
Unknown
Orbital elements
Apogee altitude
19,158.313 km
Perigee altitude
19,100.752 km
Semi-major axis
25,507.67 km
Eccentricity
0.00113
Inclination
64.3664°
RAAN
201.1333°
Arg. of periapsis
279.9657°
True anomaly
179.47469°
Mean anomaly
179.4735°
Eccentric anomaly
179.47409°
Mean motion
0.53277 °/min
Orbital period
675.72 mins
BSTAR
0
Loading maneuver chart data...
Computing Atmospheric mass density...
Loading historical data...
Loading historical data...
Loading historical data...
Loading historical data...
Loading historical data...
Loading historical data...
Loading historical data...
Other satellites on launch #30 in the year 2019 (2019-05-27 UTC)

Documentation

Showing up to 5 results
|